ProjectID,Date,Electric Generation,Electric Utility Import,Facility Electric Load
,YYYY-MM-DD,kW,kW,kW
375,2016-09-01,0.0,,0.0
375,2016-09-02,0.0,,0.0
375,2016-09-03,0.0,,0.0
375,2016-09-04,0.0,,0.0
375,2016-09-05,0.0,,0.0
375,2016-09-06,0.0,,0.0
375,2016-09-07,0.0,,0.0
375,2016-09-08,0.0,,0.0
375,2016-09-09,0.0,,0.0
375,2016-09-10,0.0,,0.0
375,2016-09-11,0.0,,0.0
375,2016-09-12,0.0,,0.0
375,2016-09-13,0.0,,0.0
375,2016-09-14,0.0,,0.0
375,2016-09-15,0.0,,0.0
375,2016-09-16,86.99166666666667,,86.99166666666667
375,2016-09-17,35.916666666666664,,35.916666666666664
375,2016-09-18,58.1625,,58.1625
375,2016-09-19,63.145833333333336,,63.145833333333336
375,2016-09-20,87.08749999999999,,87.08749999999999
375,2016-09-21,88.46249999999999,,88.46249999999999
375,2016-09-22,7.0874999999999995,,7.0874999999999995
375,2016-09-23,10.762458333333333,,10.762458333333333
375,2016-09-24,86.09587499999999,,86.09587499999999
375,2016-09-25,91.09158333333333,,91.09158333333333
375,2016-09-26,68.78750000000001,,68.78750000000001
375,2016-09-27,85.25,,85.25
375,2016-09-28,84.74591666666667,,84.74591666666667
375,2016-09-29,14.895708333333333,,14.895708333333333
375,2016-09-30,29.58758333333333,,29.58758333333333
375,2016-10-01,16.708291666666668,,16.708291666666668
375,2016-10-02,40.391625,,40.391625
375,2016-10-03,46.43333333333334,,46.43333333333334
375,2016-10-04,23.46258333333333,,23.46258333333333
375,2016-10-05,86.34579166666667,,86.34579166666667
375,2016-10-06,84.38329166666666,,84.38329166666666
375,2016-10-07,79.34995833333333,,79.34995833333333
375,2016-10-08,10.783333333333333,,10.783333333333333
375,2016-10-09,41.737541666666665,,41.737541666666665
375,2016-10-10,72.675,,72.675
375,2016-10-11,79.67904166666666,,79.67904166666666
375,2016-10-12,82.94158333333333,,82.94158333333333
375,2016-10-13,27.145875,,27.145875
375,2016-10-14,84.49154166666666,,84.49154166666666
375,2016-10-15,82.88345833333334,,82.88345833333334
375,2016-10-16,36.408375,,36.408375
375,2016-10-17,22.024958333333334,,22.024958333333334
375,2016-10-18,72.01254166666666,,72.01254166666666
375,2016-10-19,45.387458333333335,,45.387458333333335
375,2016-10-20,16.366666666666667,,16.366666666666667
375,2016-10-21,2.1168333333333336,,2.1168333333333336
375,2016-10-22,6.237625,,6.237625
375,2016-10-23,27.00425,,27.00425
375,2016-10-24,17.82495833333333,,17.82495833333333
375,2016-10-25,22.8,,22.8
375,2016-10-26,0.0,,0.0
375,2016-10-27,2.2417083333333334,,2.2417083333333334
375,2016-10-28,26.291708333333332,,26.291708333333332
375,2016-10-29,17.058458333333334,,17.058458333333334
375,2016-10-30,8.141666666666667,,8.141666666666667
375,2016-10-31,27.458375,,27.458375
375,2016-11-01,65.93345833333333,,65.93345833333333
375,2016-11-02,36.81254166666667,,36.81254166666667
375,2016-11-03,11.695791666666667,,11.695791666666667
375,2016-11-04,51.04570833333333,,51.04570833333333
375,2016-11-05,23.6875,,23.6875
375,2016-11-06,58.70425,,58.70425
375,2016-11-07,69.22079166666667,,69.22079166666667
375,2016-11-08,55.837583333333335,,55.837583333333335
375,2016-11-09,2.49575,,2.49575
375,2016-11-10,61.84175,,61.84175
375,2016-11-11,15.629333333333333,,15.629333333333333
375,2016-11-12,60.41258333333334,,60.41258333333334
375,2016-11-13,65.84566666666667,,65.84566666666667
375,2016-11-14,62.5,,62.5
375,2016-11-15,32.974916666666665,,32.974916666666665
375,2016-11-16,40.62920833333333,,40.62920833333333
375,2016-11-17,21.412458333333333,,21.412458333333333
375,2016-11-18,55.462583333333335,,55.462583333333335
375,2016-11-19,45.612625,,45.612625
375,2016-11-20,4.441666666666666,,4.441666666666666
375,2016-11-21,11.091416666666667,,11.091416666666667
375,2016-11-22,0.383125,,0.383125
375,2016-11-23,31.0,,31.0
375,2016-11-24,4.0836250000000005,,4.0836250000000005
375,2016-11-25,15.224833333333335,,15.224833333333335
375,2016-11-26,7.787458333333333,,7.787458333333333
375,2016-11-27,17.933208333333333,,17.933208333333333
375,2016-11-28,52.529291666666666,,52.529291666666666
375,2016-11-29,3.0,,3.0
375,2016-11-30,5.795958333333334,,5.795958333333334
375,2016-12-01,6.475208333333334,,6.475208333333334
375,2016-12-02,9.441708333333333,,9.441708333333333
375,2016-12-03,7.90425,,7.90425
375,2016-12-04,20.308208333333333,,20.308208333333333
375,2016-12-05,4.300083333333333,,4.300083333333333
375,2016-12-06,16.033541666666668,,16.033541666666668
375,2016-12-07,39.596,,39.596
375,2016-12-08,3.612625,,3.612625
375,2016-12-09,3.3707499999999997,,3.3707499999999997
375,2016-12-10,20.141583333333333,,20.141583333333333
375,2016-12-11,10.28775,,10.28775
375,2016-12-12,5.545875,,5.545875
375,2016-12-13,11.958374999999998,,11.958374999999998
375,2016-12-14,35.74579166666667,,35.74579166666667
375,2016-12-15,17.237666666666666,,17.237666666666666
375,2016-12-16,2.5127083333333333,,2.5127083333333333
375,2016-12-17,2.7542916666666666,,2.7542916666666666
375,2016-12-18,10.904291666666666,,10.904291666666666
375,2016-12-19,13.320583333333333,,13.320583333333333
375,2016-12-20,15.133166666666668,,15.133166666666668
375,2016-12-21,28.20404166666667,,28.20404166666667
375,2016-12-22,2.595625,,2.595625
375,2016-12-23,20.433208333333333,,20.433208333333333
375,2016-12-24,3.566708333333333,,3.566708333333333
375,2016-12-25,9.974874999999999,,9.974874999999999
375,2016-12-26,12.474916666666667,,12.474916666666667
375,2016-12-27,13.670875,,13.670875
375,2016-12-28,22.608333333333334,,22.608333333333334
375,2016-12-29,10.487541666666667,,10.487541666666667
375,2016-12-30,7.079125,,7.079125
375,2016-12-31,24.462541666666667,,24.462541666666667
375,2017-01-01,41.19166666666667,,41.19166666666667
375,2017-01-02,5.083333333333333,,5.083333333333333
375,2017-01-03,4.162416666666666,,4.162416666666666
375,2017-01-04,12.653958333333334,,12.653958333333334
375,2017-01-05,10.387416666666667,,10.387416666666667
375,2017-01-06,9.583333333333334,,9.583333333333334
375,2017-01-07,31.416625,,31.416625
375,2017-01-08,9.995791666666667,,9.995791666666667
375,2017-01-09,18.071,,18.071
375,2017-01-10,6.379208333333334,,6.379208333333334
375,2017-01-11,37.92933333333333,,37.92933333333333
375,2017-01-12,3.5127083333333338,,3.5127083333333338
375,2017-01-13,10.237625,,10.237625
375,2017-01-14,7.191375,,7.191375
375,2017-01-15,5.462583333333334,,5.462583333333334
375,2017-01-16,47.516625,,47.516625
375,2017-01-17,2.566708333333333,,6.550041666666666
375,2017-01-18,2.4707500000000002,,6.366583333333334
375,2017-01-19,5.870708333333333,,14.654041666666666
375,2017-01-20,11.016666666666666,,27.116666666666664
375,2017-01-21,50.449875,,122.95404166666665
375,2017-01-22,36.25004166666667,,89.42920833333334
375,2017-01-23,8.7955,,21.703833333333336
375,2017-01-24,0.3541666666666667,,0.8833333333333333
375,2017-01-25,2.533166666666667,,11.433166666666667
375,2017-01-26,16.3835,,40.3085
375,2017-01-27,8.6335,,34.76266666666667
375,2017-01-28,12.591791666666666,,31.020958333333333
375,2017-01-29,21.1335,,62.00016666666667
375,2017-01-30,10.221,,63.35025
375,2017-01-31,8.224958333333333,,21.825166666666668
375,2017-02-01,21.27508333333333,,79.446
375,2017-02-02,13.379249999999999,,48.350208333333335
375,2017-02-03,8.416708333333334,,36.66683333333334
375,2017-02-04,65.72908333333334,,169.6125
375,2017-02-05,13.025083333333333,,32.675291666666666
375,2017-02-06,29.9375,,74.74591666666666
375,2017-02-07,5.208375,,13.100124999999998
375,2017-02-08,15.175166666666668,,47.766958333333335
375,2017-02-09,0.5999166666666667,,1.7042083333333333
375,2017-02-10,13.241583333333333,,45.96258333333333
375,2017-02-11,19.804333333333332,,54.18358333333333
375,2017-02-12,2.9459999999999997,,7.3294999999999995
375,2017-02-13,15.295875,,39.933458333333334
375,2017-02-14,72.75,,175.90008333333333
375,2017-02-15,6.679375,,22.987916666666667
375,2017-02-16,12.187541666666666,,46.929375
375,2017-02-17,31.966416666666664,,122.05404166666666
375,2017-02-18,68.50387500000001,,165.55816666666666
375,2017-02-19,74.97066666666667,,180.70829166666667
375,2017-02-20,84.47095833333334,,202.74625
375,2017-02-21,41.59995833333333,,100.86245833333334
375,2017-02-22,44.954,,108.47925000000001
375,2017-02-23,59.099916666666665,,142.50025
375,2017-02-24,56.775,,137.20420833333333
375,2017-02-25,10.054333333333334,,24.708750000000002
375,2017-02-26,26.033125,,74.96225
375,2017-02-27,65.87075,,157.92516666666666
375,2017-02-28,46.25816666666666,,112.02895833333332
375,2017-03-01,36.162375000000004,,87.61254166666667
375,2017-03-02,16.124916666666667,,101.92908333333334
375,2017-03-03,20.900041666666667,,70.54599999999999
375,2017-03-04,14.604125000000002,,74.43758333333334
375,2017-03-05,88.08329166666665,,214.82512499999999
375,2017-03-06,47.47108333333333,,115.462875
375,2017-03-07,18.637375000000002,,45.68745833333334
375,2017-03-08,56.208333333333336,,148.54183333333333
375,2017-03-09,40.30825,,137.51270833333334
375,2017-03-10,8.379166666666666,,51.17091666666667
375,2017-03-11,11.049833333333334,,50.374875
375,2017-03-12,12.570958333333332,,89.38791666666667
375,2017-03-13,48.69179166666667,,118.50879166666667
375,2017-03-14,0.0,,0.06675
375,2017-03-15,1.8625833333333333,,13.020791666666668
375,2017-03-16,72.25416666666666,,191.80812500000002
375,2017-03-17,94.33729166666666,,224.71270833333332
375,2017-03-18,15.300125,,39.17491666666667
375,2017-03-19,60.98370833333333,,146.87525
375,2017-03-20,40.50395833333334,,98.52058333333333
375,2017-03-21,75.21225,,180.416375
375,2017-03-22,11.52475,,118.89941666666667
375,2017-03-23,98.849625,,235.012
375,2017-03-24,34.49554166666667,,83.24591666666666
375,2017-03-25,10.104208333333334,,25.091833333333334
375,2017-03-26,24.933041666666668,,60.862375
375,2017-03-27,29.595708333333334,,72.35425000000001
375,2017-03-28,15.429041666666668,,37.904291666666666
375,2017-03-29,87.4375,,214.78320833333333
375,2017-03-30,34.74216666666667,,84.217125
375,2017-03-31,9.729208333333334,,24.108083333333333
375,2017-04-01,12.346416666666668,,30.388458333333332
375,2017-04-02,79.19204166666667,,188.51691666666667
375,2017-04-03,52.162791666666664,,130.19195833333333
375,2017-04-04,42.74608333333333,,102.71258333333333
375,2017-04-05,47.483125,,115.27508333333334
375,2017-04-06,10.958333333333334,,26.983125
375,2017-04-07,26.15825,,64.05829166666666
375,2017-04-08,88.41275,,222.44212499999998
375,2017-04-09,92.53391666666666,,221.83791666666667
375,2017-04-10,83.51633333333334,,201.07916666666665
375,2017-04-11,35.62108333333333,,86.55824999999999
375,2017-04-12,47.76241666666667,,115.97916666666667
375,2017-04-13,71.17120833333333,,171.6005833333333
375,2017-04-14,99.746125,,238.7585
375,2017-04-15,49.79624999999999,,120.29241666666667
375,2017-04-16,61.283208333333334,,147.45825000000002
375,2017-04-17,95.06641666666667,,226.94983333333334
375,2017-04-18,101.03329166666667,,241.2289583333333
375,2017-04-19,23.296208333333336,,56.72983333333333
375,2017-04-20,13.400416666666667,,33.0385
375,2017-04-21,42.57491666666667,,102.95775
375,2017-04-22,23.658208333333334,,57.85425
375,2017-04-23,100.42966666666666,,239.05929166666667
375,2017-04-24,98.09570833333333,,234.90825
375,2017-04-25,41.07095833333333,,99.50854166666666
375,2017-04-26,84.01304166666667,,201.8295
375,2017-04-27,78.35025,,188.438125
375,2017-04-28,88.125,,211.33270833333336
375,2017-04-29,19.75,,48.02475
375,2017-04-30,51.40825,,124.20445833333332
375,2017-05-01,49.395833333333336,,119.37437499999999
375,2017-05-02,36.26241666666667,,90.22075000000001
375,2017-05-03,53.03720833333333,,152.73708333333335
375,2017-05-04,29.758499999999998,,72.39654166666666
375,2017-05-05,16.362624999999998,,40.15891666666666
375,2017-05-06,16.60025,,40.779333333333334
375,2017-05-07,30.5625,,74.48308333333333
375,2017-05-08,46.90825,,115.72079166666666
375,2017-05-09,81.90829166666667,,195.76183333333336
375,2017-05-10,95.58333333333333,,229.67058333333335
375,2017-05-11,74.9375,,179.99545833333332
375,2017-05-12,65.07883333333334,,156.1375
375,2017-05-13,31.299541666666666,,76.032
375,2017-05-14,50.88675,,121.78658333333334
375,2017-05-15,52.362,,126.20770833333333
375,2017-05-16,54.121125,,130.84245833333333
375,2017-05-17,92.06254166666668,,220.75791666666666
375,2017-05-18,72.79175,,174.67133333333334
375,2017-05-19,70.30470833333334,,169.04625
375,2017-05-20,87.391375,,209.77875
375,2017-05-21,54.75845833333333,,131.86654166666668
375,2017-05-22,48.45441666666667,,116.73370833333334
375,2017-05-23,82.75004166666666,,199.058625
375,2017-05-24,85.425125,,204.87108333333333
375,2017-05-25,27.262375000000002,,66.43820833333334
375,2017-05-26,27.903666666666666,,67.84058333333334
375,2017-05-27,41.72920833333333,,100.92516666666666
375,2017-05-28,64.012375,,153.92904166666668
375,2017-05-29,59.63345833333333,,143.599625
375,2017-05-30,43.72075,,105.3965
375,2017-05-31,64.03779166666666,,153.321
375,2017-06-01,79.15370833333334,,188.99033333333335
375,2017-06-02,71.15429166666667,,170.459
375,2017-06-03,97.26304166666667,,232.3874166666667
375,2017-06-04,27.53775,,67.06704166666667
375,2017-06-05,35.162749999999996,,85.12895833333333
375,2017-06-06,38.154333333333334,,92.55091666666667
375,2017-06-07,88.125,,210.62958333333336
375,2017-06-08,92.929125,,222.495625
375,2017-06-09,94.02929166666667,,224.98370833333334
375,2017-06-10,73.61266666666667,,177.06583333333333
375,2017-06-11,96.14983333333333,,231.15833333333333
375,2017-06-12,86.22466666666666,,206.68370833333333
375,2017-06-13,73.80016666666667,,177.75004166666668
375,2017-06-14,98.03325,,236.16674999999998
375,2017-06-15,48.47920833333333,,116.86266666666667
375,2017-06-16,67.78325,,162.66675
375,2017-06-17,82.56254166666666,,198.09975
375,2017-06-18,85.30079166666667,,204.292375
375,2017-06-19,29.566458333333333,,71.72862500000001
375,2017-06-20,78.125,,186.98766666666666
375,2017-06-21,69.79166666666667,,167.70775
375,2017-06-22,78.132875,,187.63425
375,2017-06-23,37.520916666666665,,90.85958333333332
375,2017-06-24,81.30345833333332,,195.14987499999998
375,2017-06-25,66.66679166666667,,159.87004166666668
375,2017-06-26,59.97008333333333,,144.18375
375,2017-06-27,60.15891666666667,,144.1929166666667
375,2017-06-28,78.93370833333334,,188.78675
375,2017-06-29,56.445375000000006,,136.50808333333333
375,2017-06-30,50.00791666666667,,120.86741666666666
375,2017-07-01,38.79170833333333,,93.53279166666667
375,2017-07-02,63.10033333333333,,151.33741666666666
375,2017-07-03,92.41683333333333,,221.94170833333334
375,2017-07-04,97.79562499999999,,234.941625
375,2017-07-05,89.507875,,214.74891666666667
375,2017-07-06,52.608125,,127.341375
375,2017-07-07,63.42458333333334,,152.84520833333332
375,2017-07-08,73.20445833333333,,175.36616666666666
375,2017-07-09,83.51308333333334,,199.80866666666668
375,2017-07-10,71.49616666666667,,171.962375
375,2017-07-11,71.05083333333333,,146.42295833333333
375,2017-07-12,49.94541666666667,,124.89741666666666
375,2017-07-13,24.57041666666667,,99.52241666666667
375,2017-07-14,54.466208333333334,,110.10974999999999
375,2017-07-15,41.933708333333335,,101.70216666666667
375,2017-07-16,84.920625,,203.562625
375,2017-07-17,45.12504166666667,,109.05358333333334
375,2017-07-18,90.60429166666667,,217.65525
375,2017-07-19,83.17066666666666,,199.49237499999998
375,2017-07-20,48.10033333333333,,116.31662499999999
375,2017-07-21,82.39729166666667,,197.79329166666668
375,2017-07-22,37.583416666666665,,91.247625
375,2017-07-23,52.238416666666666,,125.83749999999999
375,2017-07-24,43.59645833333334,,105.11866666666667
375,2017-07-25,34.308625,,83.26966666666667
375,2017-07-26,57.85816666666667,,139.814
375,2017-07-27,33.61983333333333,,81.59
375,2017-07-28,67.39195833333333,,163.261875
375,2017-07-29,89.504,,216.19162500000002
375,2017-07-30,94.79175,,228.29316666666665
375,2017-07-31,87.657625,,211.08229166666666
375,2017-08-01,88.58737500000001,,212.68254166666668
375,2017-08-02,71.24625,,171.39350000000002
375,2017-08-03,81.695375,,195.92337500000002
375,2017-08-04,62.44670833333333,,150.14220833333331
375,2017-08-05,55.20845833333333,,133.15391666666667
375,2017-08-06,79.56645833333333,,191.88304166666666
375,2017-08-07,82.05862499999999,,197.20458333333335
375,2017-08-08,62.990916666666664,,150.92849999999999
375,2017-08-09,77.9545,,187.703375
375,2017-08-10,77.37116666666667,,186.367375
375,2017-08-11,45.25008333333333,,109.66166666666666
375,2017-08-12,75.74608333333333,,181.61858333333333
375,2017-08-13,84.79175,,203.74108333333334
375,2017-08-14,78.34508333333333,,188.547
375,2017-08-15,59.40891666666667,,142.52629166666668
375,2017-08-16,87.92200000000001,,211.43775000000002
375,2017-08-17,81.54695833333334,,195.90254166666668
375,2017-08-18,51.513083333333334,,124.58741666666668
375,2017-08-19,45.587291666666665,,109.91816666666668
375,2017-08-20,80.04566666666666,,192.48716666666667
375,2017-08-21,62.371208333333335,,150.48845833333334
375,2017-08-22,53.954499999999996,,129.81395833333335
375,2017-08-23,81.11333333333333,,194.87908333333334
375,2017-08-24,61.71745833333333,,147.93891666666667
375,2017-08-25,80.869875,,194.1915833333333
375,2017-08-26,90.83345833333334,,218.85833333333335
375,2017-08-27,88.695375,,213.3205
375,2017-08-28,64.48704166666667,,156.05745833333333
375,2017-08-29,65.63420833333333,,158.26841666666667
375,2017-08-30,79.16283333333332,,190.24624999999997
375,2017-08-31,42.670625,,103.42070833333332
375,2017-09-01,79.049625,,190.700875
375,2017-09-02,70.79170833333333,,169.76575
375,2017-09-03,22.365958333333335,,54.57179166666667
375,2017-09-04,86.36720833333334,,207.88308333333333
375,2017-09-05,8.16675,,20.209833333333336
375,2017-09-06,28.011750000000003,,68.11087500000001
375,2017-09-07,52.35820833333333,,126.03800000000001
375,2017-09-08,48.23704166666667,,115.91683333333334
375,2017-09-09,40.320375,,97.721625
375,2017-09-10,85.40508333333334,,205.51325
375,2017-09-11,90.71220833333332,,218.4585
375,2017-09-12,81.02483333333333,,195.76191666666665
375,2017-09-13,50.520916666666665,,121.758
375,2017-09-14,23.267041666666668,,56.803583333333336
375,2017-09-15,85.295625,,205.9455
375,2017-09-16,78.64204166666667,,189.96637500000003
375,2017-09-17,70.24229166666667,,169.6929166666667
375,2017-09-18,81.5795,,196.54191666666668
375,2017-09-19,80.45054166666667,,194.1290833333333
375,2017-09-20,85.62108333333333,,206.601625
375,2017-09-21,53.99220833333334,,130.84645833333332
375,2017-09-22,48.51170833333333,,118.04570833333334
375,2017-09-23,84.47920833333333,,203.82183333333333
375,2017-09-24,81.77862499999999,,197.674625
375,2017-09-25,80.65366666666667,,194.43758333333332
375,2017-09-26,70.28779166666666,,169.81787500000002
375,2017-09-27,75.82041666666667,,182.67083333333335
375,2017-09-28,28.579416666666663,,69.44545833333333
375,2017-09-29,50.19145833333334,,120.33870833333333
375,2017-09-30,29.007875,,70.90254166666666
375,2017-10-01,88.44145833333333,,212.88816666666668
375,2017-10-02,87.45833333333333,,210.7072083333333
375,2017-10-03,85.70841666666666,,206.57574999999997
375,2017-10-04,68.26179166666667,,164.245
375,2017-10-05,70.44924999999999,,170.82695833333332
375,2017-10-06,30.238375,,73.48983333333334
375,2017-10-07,41.708333333333336,,100.94941666666668
375,2017-10-08,50.2995,,121.33354166666666
375,2017-10-09,26.583416666666665,,64.419625
375,2017-10-10,62.41287500000001,,150.97941666666668
375,2017-10-11,11.880333333333333,,29.127875
375,2017-10-12,24.500083333333333,,59.544624999999996
375,2017-10-13,40.596375,,97.75929166666667
375,2017-10-14,47.884166666666665,,116.20454166666667
375,2017-10-15,65.57941666666666,,158.49104166666666
375,2017-10-16,34.03779166666667,,83.71241666666667
375,2017-10-17,81.58733333333333,,198.15129166666668
375,2017-10-18,78.553375,,190.103
375,2017-10-19,78.97916666666667,,190.87120833333336
375,2017-10-20,79.84120833333334,,193.12258333333335
375,2017-10-21,57.62116666666666,,139.634375
375,2017-10-22,55.479166666666664,,134.16166666666666
375,2017-10-23,36.86333333333334,,89.33754166666668
375,2017-10-24,43.05470833333334,,104.39608333333334
375,2017-10-25,67.920625,,163.83233333333334
375,2017-10-26,20.34904166666667,,49.74766666666667
375,2017-10-27,63.87895833333334,,154.94941666666665
375,2017-10-28,52.10420833333333,,125.86225
375,2017-10-29,5.091208333333333,,12.630500000000001
375,2017-10-30,26.708375,,64.885625
375,2017-10-31,55.454499999999996,,133.66295833333334
375,2017-11-01,7.045583333333333,,17.418125
375,2017-11-02,33.60945833333333,,81.65395833333332
375,2017-11-03,7.683625,,18.899916666666666
375,2017-11-04,33.05866666666667,,80.54325
375,2017-11-05,6.075625,,15.08625
375,2017-11-06,5.6875,,14.250208333333333
375,2017-11-07,10.270916666666666,,25.307541666666665
375,2017-11-08,66.657625,,169.73591666666664
375,2017-11-09,40.67979166666667,,102.18770833333333
375,2017-11-10,7.091208333333333,,55.89870833333334
375,2017-11-11,48.475291666666664,,140.07179166666666
375,2017-11-12,47.73829166666667,,118.816625
375,2017-11-13,38.391958333333335,,93.07966666666667
375,2017-11-14,5.741,,14.228208333333333
375,2017-11-15,47.929750000000006,,124.104375
375,2017-11-16,21.475333333333335,,52.15516666666667
375,2017-11-17,28.191458333333333,,111.69429166666666
375,2017-11-18,4.1745,,10.411625
375,2017-11-19,8.403625,,20.70583333333333
375,2017-11-20,5.537791666666667,,14.54575
375,2017-11-21,44.55866666666666,,110.37916666666666
375,2017-11-22,7.954416666666667,,19.566583333333334
375,2017-11-23,19.179708333333334,,47.383
375,2017-11-24,47.83733333333333,,134.251625
375,2017-11-25,23.246125000000003,,56.537958333333336
375,2017-11-26,8.8125,,21.690291666666667
375,2017-11-27,17.367250000000002,,48.23458333333333
375,2017-11-28,53.854166666666664,,135.023625
375,2017-11-29,36.350249999999996,,89.59779166666667
375,2017-11-30,33.759166666666665,,93.360875
375,2017-12-01,14.192708333333334,,36.580875
375,2017-12-02,14.270874999999998,,34.989875
375,2017-12-03,45.725249999999996,,112.52229166666666
375,2017-12-04,26.08729166666667,,71.467625
375,2017-12-05,3.8841249999999996,,9.676
375,2017-12-06,18.971416666666666,,75.49758333333332
375,2017-12-07,9.441458333333333,,23.384375
375,2017-12-08,27.782625,,74.29841666666667
375,2017-12-09,15.420666666666667,,37.881791666666665
375,2017-12-10,10.774791666666667,,27.876541666666668
375,2017-12-11,11.549541666666668,,30.953375
375,2017-12-12,1.658875,,3.5940000000000003
375,2017-12-13,10.128958333333333,,48.71766666666667
375,2017-12-14,3.907541666666667,,10.09
375,2017-12-15,2.829458333333333,,7.233333333333333
375,2017-12-16,0.6082083333333334,,1.6812916666666666
375,2017-12-17,0.7044583333333333,,1.9572500000000002
375,2017-12-18,1.9622916666666665,,6.9755416666666665
375,2017-12-19,43.238375,,61.28
375,2017-12-20,0.6914166666666667,,24.076416666666667
375,2017-12-21,26.579541666666668,,49.96454166666667
375,2017-12-22,1.2826250000000001,,24.667625
375,2017-12-23,1.820375,,25.205375
375,2017-12-24,5.484458333333333,,28.869458333333334
375,2017-12-25,9.087291666666667,,32.47229166666667
375,2017-12-26,3.3165,,26.701500000000003
375,2017-12-27,17.128916666666665,,40.51391666666667
375,2017-12-28,7.204541666666667,,30.58954166666667
375,2017-12-29,10.829541666666666,,34.21454166666667
375,2017-12-30,2.920625,,26.305625000000003
375,2017-12-31,0.7605,,24.145500000000002
375,2018-01-01,2.69275,,26.07775
375,2018-01-02,6.7409583333333325,,30.125958333333333
375,2018-01-03,26.76825,,50.15325
375,2018-01-04,2.161541666666667,,25.54654166666667
375,2018-01-05,10.004041666666668,,33.38904166666667
375,2018-01-06,10.746166666666667,,34.13116666666667
375,2018-01-07,29.903791666666667,,53.28879166666667